TimeEST,TemperatureF,Dew PointF,Humidity,Sea Level PressureIn,VisibilityMPH,Wind Direction,Wind SpeedMPH,Gust SpeedMPH,PrecipitationIn,Events,Conditions,WindDirDegrees,DateUTC
12:53 AM,30.0,28.9,96,30.20,4.0,South,3.5,-,N/A,,Clear,180,2012-11-09 05:53:00
1:53 AM,28.0,27.0,96,30.20,3.0,Calm,Calm,-,N/A,,Clear,0,2012-11-09 06:53:00
2:53 AM,28.0,26.1,92,30.21,3.0,Calm,Calm,-,N/A,,Clear,0,2012-11-09 07:53:00
3:37 AM,28.4,26.6,93,30.18,2.5,Calm,Calm,-,N/A,,Clear,0,2012-11-09 08:37:00
3:53 AM,28.0,25.0,88,30.22,3.0,Calm,Calm,-,N/A,,Clear,0,2012-11-09 08:53:00
4:53 AM,28.0,27.0,96,30.23,3.0,SSE,3.5,-,N/A,,Clear,160,2012-11-09 09:53:00
5:53 AM,28.0,26.1,92,30.25,3.0,South,3.5,-,N/A,,Clear,190,2012-11-09 10:53:00
6:48 AM,28.4,26.6,93,30.22,2.5,South,4.6,-,N/A,,Clear,180,2012-11-09 11:48:00
6:53 AM,28.0,26.1,92,30.26,2.5,South,3.5,-,N/A,,Clear,180,2012-11-09 11:53:00
7:18 AM,28.4,26.6,93,30.22,1.5,South,3.5,-,N/A,,Clear,180,2012-11-09 12:18:00
7:53 AM,28.9,28.0,96,30.27,1.8,South,5.8,-,N/A,,Clear,180,2012-11-09 12:53:00
8:03 AM,30.2,28.4,93,30.23,2.0,South,5.8,-,N/A,,Clear,180,2012-11-09 13:03:00
8:53 AM,34.0,32.0,92,30.28,2.5,South,4.6,-,N/A,,Clear,180,2012-11-09 13:53:00
9:22 AM,37.4,33.8,87,30.24,3.0,South,6.9,-,N/A,,Clear,190,2012-11-09 14:22:00
9:53 AM,39.9,36.0,86,30.27,4.0,South,6.9,-,N/A,,Clear,190,2012-11-09 14:53:00
10:53 AM,46.9,37.0,68,30.26,5.0,SW,8.1,-,N/A,,Haze,220,2012-11-09 15:53:00
11:53 AM,51.1,39.0,63,30.24,7.0,SSW,9.2,-,N/A,,Clear,210,2012-11-09 16:53:00
12:53 PM,53.1,39.0,59,30.20,10.0,SW,11.5,-,N/A,,Clear,220,2012-11-09 17:53:00
1:53 PM,54.0,37.9,55,30.19,8.0,SSW,12.7,-,N/A,,Clear,210,2012-11-09 18:53:00
2:53 PM,55.9,37.9,51,30.17,10.0,South,10.4,-,N/A,,Clear,190,2012-11-09 19:53:00
3:53 PM,55.0,37.0,51,30.16,10.0,South,10.4,-,N/A,,Clear,190,2012-11-09 20:53:00
4:53 PM,52.0,37.0,57,30.16,10.0,South,8.1,-,N/A,,Clear,180,2012-11-09 21:53:00
5:53 PM,48.0,36.0,63,30.17,10.0,South,4.6,-,N/A,,Clear,180,2012-11-09 22:53:00
6:53 PM,48.9,37.0,64,30.17,10.0,South,9.2,-,N/A,,Mostly Cloudy,170,2012-11-09 23:53:00
7:53 PM,50.0,36.0,59,30.16,10.0,SSE,10.4,-,N/A,,Mostly Cloudy,160,2012-11-10 00:53:00
8:53 PM,48.9,36.0,61,30.15,10.0,South,11.5,-,N/A,,Overcast,180,2012-11-10 01:53:00
9:53 PM,50.0,37.0,61,30.14,10.0,South,11.5,-,N/A,,Overcast,180,2012-11-10 02:53:00
10:53 PM,48.0,39.9,74,30.15,5.0,SSW,9.2,-,0.03,Rain,Light Rain,200,2012-11-10 03:53:00
11:12 PM,46.4,41.0,81,30.18,1.5,West,5.8,-,0.18,Rain,Heavy Rain,270,2012-11-10 04:12:00
11:19 PM,46.4,42.8,87,30.16,0.8,Calm,Calm,-,0.31,Rain,Heavy Rain,0,2012-11-10 04:19:00
11:26 PM,44.6,42.8,93,30.16,1.2,South,4.6,-,0.36,Rain,Heavy Rain,190,2012-11-10 04:26:00
11:32 PM,44.6,42.8,93,30.16,3.0,South,5.8,-,0.36,Rain,Light Rain,170,2012-11-10 04:32:00
11:53 PM,46.0,43.0,89,30.18,4.0,South,5.8,-,0.40,Rain,Rain,190,2012-11-10 04:53:00